Regional Weather Roundup
Issued by NWS

Home | Current Version | Previous Version | Text Only | Print | Product List | Glossary On
Versions: 1 2 3 4 5 6 7 8 9 10 11 12 13 14 15 16 17 18 19 20 21 22 23 24 25 26 27 28 29 30 31 32 33 34 35 36 37 38 39 40 41 42 43 44 45 46 47 48 49 50
000
ASUS45 KSLC 221110
RWRUT

UTAH REGIONAL WEATHER ROUNDUP
NATIONAL WEATHER SERVICE SALT LAKE CITY UT
500 AM MDT FRI MAY 22 2015

UTZ001>011-023>025-221200-

NORTHERN UTAH

CITY           SKY/WX    TMP DP  RH WIND       PRES   REMARKS
BRIGHAM CITY   CLOUDY    50  45  83 NW6       29.90F
HILL AFB       MOCLDY    50  42  73 E14       29.89F
LOGAN          CLOUDY    46  43  89 N5        29.92S
OGDEN          MOCLDY    50  43  77 S6        29.89S
PROVO AIRPORT  MOCLDY    45  37  76 CALM      29.92S
SALT LAKE CITY MOCLDY    52  46  80 SE8       29.89S
VERNAL         CLOUDY    49  45  86 N5        29.96S
WENDOVER       CLOUDY    52  46  82 SW5       29.91S
HEBER CITY     CLOUDY    41  37  87 CALM      29.97S
WEST JORDAN    CLEAR     46  45  93 CALM      29.91S

$$

UTZ012>022-026-027-221200-

SOUTHERN/CENTRAL UTAH

CITY           SKY/WX    TMP DP  RH WIND       PRES   REMARKS
BLANDING       CLEAR     47  38  71 E3        30.06S
BRYCE CANYON   PTCLDY    31  25  78 W7        30.03S WCI  24
CEDAR CITY     CLOUDY    47  30  51 S7        29.92F
DELTA          MOCLDY    47  41  78 S7        29.91S
HANKSVILLE     MOCLDY    54  37  54 CALM      29.91S
MILFORD        CLOUDY    49  36  61 S6        29.92R
MOAB/CYNLANDS  CLEAR     56  41  57 N8        29.90R
PRICE          CLOUDY    54  33  45 E10       29.94R
ST GEORGE      PTSUNNY   61  27  27 S3        29.86S
KANAB          CLOUDY    43  32  65 NE3       29.98R

$$

REGIONAL REPORTS     COLORADO/ARIZONA

CITY           SKY/WX    TMP DP  RH WIND       PRES   REMARKS
CRAIG, CO      CLOUDY    46  40  79 E5        29.99S
GRAND JUNCTION CLOUDY    49  44  83 SE6       29.96F
RIFLE          LGT RAIN  46  41  82 E12       30.01R
MONTROSE       CLOUDY    47  43  86 CALM      30.03F
CORTEZ         CLEAR     48  39  71 SW7       30.01S
PAGE, AZ       NOT AVBL
GRAND CANYON   MOCLDY    30  28  92 CALM      30.03R
KINGMAN        MOCLDY    51  31  46 E6        29.88S
FLAGSTAFF      PTCLDY    33  28  81 CALM      30.04R

$$

REGIONAL REPORTS    NEVADA/IDAHO/WYOMING

CITY           SKY/WX    TMP DP  RH WIND       PRES   REMARKS
LAS VEGAS, NV  MOCLDY    63  40  42 S16       29.77R
ELY            CLOUDY    41  36  82 SE5       29.97S
ELKO           MOCLDY    48  43  82 CALM      29.93S
POCATELLO, ID  CLOUDY    48  46  93 CALM      29.92S
BURLEY         CLOUDY    52  47  83 CALM      29.89S
EVANSTON, WY   CLOUDY    40  37  89 NE6       29.99F
ROCK SPRINGS   CLOUDY    42  37  82 S9        30.00S
KEMMERER       CLOUDY    37  36  93 N6        30.02S WCI  33

$$



USA.gov is the U.S. government's official web portal to all federal, state and local government web resources and services.